GALAXY 31 (G-31)

Last updated on Sat Oct 18 2025 00:02:56 GMT+0000 (Coordinated Universal Time)

1 54243U 22153A 25290.67351698 .00000004 00000+0 00000+0 0 9996 2 54243 0.0107 218.6595 0001621 5.9204 283.3259 1.00271716 4702
UTC large
Height (km)
Speed (km/s)
/
Latitude / Longitude
Inclination (degrees)
Orbital Period (minutes)
Azimuth
Elevation
Range (km)
Doppler Factor

Next 0 passes for location: London (51.5072 / 0.1276)

Sorry there are no passes over London.